Погода в Ивановке

Украина / Кировоградская область     48°26′12″N   32°08′05″E
темп.,
°C
ветер,
м/с
пор.,
м/с
влажн.,
%
обл.,
%
осадки,
мм/ч
давл.,
гПа
погр.,
м
10 мая, пн
пн1000:00+6сз22782 0.0 102619
03:00+5ссз22800 0.0 102711
06:00+5ссз22820 0.0 102714
09:00+11с23605 0.0 1027599
12:00+15с45424 0.0 10261811
15:00+16с56360 0.0 10251854
18:00+14ссв57465 0.0 10241729
21:00+9с466624 0.0 102483
11 мая, вт
вт1100:00+8ссз4107159 0.0 1022181
03:00+7ссз61472100 0.0 1021328
06:00+9с7136199 0.0 1019500
09:00+12с796838 0.0 1018600
12:00+17с7962100 0.0 1017906
15:00+19ссв81062100 0.0 10161510
18:00+15св6107869 0.8 1016780
21:00+10св49876 0.9 1017241
12 мая, ср
ср1200:00+7св37845 0.0 1017122
03:00+6св411939 0.0 1016347
06:00+7св5988100 0.0 1015698
09:00+10всв787187 0.1 10151167
12:00+10в367141 0.3 1015849
15:00+14св455480 0.7 10131720
18:00+13в33577 0.1 10131065
21:00+9в22749 0.2 101312
13 мая, чт
чт1300:00+7вюв22794 0.0 101310
03:00+6вюв22830 0.0 101318
06:00+7вюв3383100 0.0 101362
09:00+13юв5767100 0.0 1012477
12:00+17юв6760100 0.0 10111035
15:00+20юв795260 0.0 10101719
18:00+20вюв6961100 0.1 10091217
21:00+15вюв51181100 0.3 1008211
14 мая, пт
пт1400:00+12ююв378892 0.0 1008135
03:00+11ююз339079 0.1 100839
06:00+10ююз228174 0.1 100937
09:00+16ю22595 0.1 1009367
12:00+20ююз335185 0.0 1009985
15:00+22ю3449100 0.0 10091786
18:00+20юз4564100 0.3 1009605
21:00+16юз338196 3.3 100936